Location: Gouy
(50.0008°N, 3.2556°E)
Time: 07:38:25
(UTC+00:00)

Cosmos 1703 Rocket - Pass Details

Date: 10 October 2024
Orbit: 600 x 629 km, 82.5° (Epoch: 03 November)

Event Time Altitude Azimuth Distance (km) Brightness Sun altitude
Rises 19:16:34 0° 337° (NNW) 2,887 7.5 -21.8°
Reaches altitude 10° 19:19:15 10° 322° (NW) 1,971 6.9 -22.2°
Maximum altitude 19:22:26 20° 274° (W) 1,403 6.2 -22.7°
Drops below altitude 10° 19:25:37 10° 226° (SW) 1,948 6.4 -23.2°
Sets 19:28:15 0° 210° (SSW) 2,842 7.1 -23.6°
